User: anonymous   Login
Location: Goodsell Observatory
(44.4617°N, 93.1522°W)
Time: 01:53:12
(UTC-05:00)
Language:

Hubble Space Telescope - Orbit

View from above orbital plane
View from above orbital plane
View from above satellite
View from above satellite

Ground track
Ground track

The orbit data is extracted from the following two-line orbital elements,

1 20580U 90037B   16176.16761045  .00000598  00000-0  26218-4 0  9990
2 20580  28.4685 212.6275 0002487 284.7615  75.2666 15.08403446236164
Epoch (UTC): 24 June 2016 04:01:21
Eccentricity: 0.0002487
inclination: 28.4685°
perigee height: 539 km
apogee height: 543 km
right ascension of ascending node: 212.6275°
argument of perigee: 284.7615°
revolutions per day: 15.08403446
mean anomaly at epoch: 75.2666°
orbit number at epoch: 23616

The dashed part of the orbit path shows where the satellite is in the earth's shadow,  

DLR